QPF
0.00 0.00 0.00 0.00 0.00 0.00 0.00 0.00 0.00 0.00 0.00 0.00 0.00 0.00 0.00 0.00 0.00 0.00 0.00 0.00 0.00 0.00 0.00 0.00 0.00 0.00 0.00 0.00 0.00 0.00 0.00 0.00 0.00 0.00 0.00 0.00 0.00 0.00 0.00 0.00 0.00 0.00 0.00
0.00 0.00 0.00 0.00 0.00 0.00 0.00 0.00 0.00 0.00 0.00 0.00 0.00 0.00 0.00 0.00 0.00 0.00 0.00 0.00 0.00 0.00 0.00 0.00 0.00 0.00 0.00 0.00 0.00 0.00 0.00 0.00 0.00 0.00 0.00 0.00 0.00 0.00 0.00 0.00 0.00 0.00 0.00
0.00 0.00 0.00 0.00 0.00 0.00 0.00 0.00 0.00 0.00 0.00 0.00 0.00 0.00 0.00 0.00 0.00 0.00 0.00 0.00 0.00 0.00 0.00 0.00 0.00 0.00 0.00 0.00 0.00 0.00 0.00 0.00 0.00 0.00 0.00 0.00 0.00 0.00 0.00 0.00 0.00 0.00 0.00
0.00 0.00 0.00 0.00 0.00 0.00 0.00 0.00 0.00 0.00 0.00 0.00 0.00 0.00 0.00 0.00 0.00 0.00 0.00 0.00 0.00 0.00 0.00 0.00 0.00 0.00 0.00 0.00 0.00 0.00 0.00 0.00 0.00 0.00 0.00 0.00 0.00 0.00 0.00 0.00 0.00 0.00 0.00
0.00 0.00 0.00 0.00 0.00 0.00 0.00 0.00 0.00 0.00 0.00 0.00 0.00 0.00 0.00 0.00 0.00 0.00 0.00 0.00 0.00 0.00 0.00 0.00 0.00 0.00 0.00 0.00 0.00 0.00 0.00 0.00 0.00 0.00 0.00 0.00 0.00 0.00 0.00 0.00 0.00 0.00 0.00
0.00 0.00 0.00 0.00 0.00 0.00 0.00 0.00 0.00 0.00 0.00 0.00 0.00 0.00 0.00 0.00 0.00 0.00 0.00 0.00 0.00 0.00 0.00 0.00 0.00 0.00 0.00 0.00 0.00 0.00 0.00 0.00 0.00 0.00 0.00 0.00 0.00 0.00 0.00 0.00 0.00 0.00 0.00
0.00 0.00 0.00 0.00 0.00 0.00 0.00 0.00 0.00 0.00 0.00 0.00 0.00 0.00 0.00 0.00 0.00 0.00 0.00 0.00 0.00 0.00 0.00 0.00 0.00 0.00 0.00 0.00 0.00 0.00 0.00 0.00 0.00 0.00 0.00 0.00 0.00 0.00 0.00 0.00 0.00 0.00 0.00
0.00 0.00 0.00 0.00 0.00 0.00 0.00 0.00 0.00 0.00 0.00 0.00 0.00 0.00 0.00 0.00 0.00 0.00 0.00 0.00 0.00 0.00 0.00 0.00 0.00 0.00 0.00 0.00 0.00 0.00 0.00 0.00 0.00 0.00 0.00 0.00 0.00 0.00 0.00 0.00 0.00 0.00 0.00
0.00 0.00 0.00 0.00 0.00 0.00 0.00 0.00 0.00 0.00 0.00 0.00 0.00 0.00 0.00 0.00 0.00 0.00 0.00 0.00 0.00 0.00 0.00 0.00 0.00 0.00 0.00 0.00 0.00 0.00 0.00 0.00 0.00 0.00 0.00 0.00 0.00 0.00 0.00 0.00 0.00 0.01 0.00
0.00 0.00 0.00 0.00 0.00 0.00 0.00 0.00 0.00 0.00 0.00 0.00 0.00 0.00 0.00 0.00 0.00 0.00 0.00 0.00 0.00 0.00 0.00 0.00 0.00 0.00 0.00 0.00 0.00 0.00 0.00 0.00 0.00 0.00 0.00 0.00 0.00 0.00 0.00 0.00 0.01 0.01 0.02
0.00 0.00 0.00 0.00 0.00 0.00 0.00 0.00 0.00 0.00 0.00 0.00 0.00 0.00 0.00 0.00 0.00 0.00 0.00 0.00 0.00 0.00 0.00 0.00 0.00 0.00 0.00 0.00 0.00 0.00 0.00 0.00 0.00 0.00 0.00 0.00 0.00 0.00 0.00 0.01 0.01 0.03 0.05
0.00 0.00 0.00 0.00 0.00 0.00 0.00 0.00 0.00 0.00 0.00 0.00 0.00 0.00 0.00 0.00 0.00 0.00 0.00 0.00 0.00 0.00 0.00 0.00 0.00 0.00 0.00 0.00 0.00 0.00 0.00 0.00 0.00 0.00 0.00 0.00 0.00 0.00 0.00 0.00 0.00 0.00 0.00
0.00 0.00 0.00 0.00 0.00 0.00 0.00 0.00 0.00 0.00 0.00 0.00 0.00 0.00 0.00 0.00 0.00 0.00 0.00 0.00 0.00 0.00 0.00 0.00 0.00 0.00 0.00 0.00 0.00 0.00 0.00 0.00 0.01 0.02 0.01 0.02 0.02 0.00 0.00 0.00 0.01 0.03 0.02
0.00 0.00 0.00 0.00 0.00 0.00 0.00 0.00 0.00 0.00 0.00 0.00 0.00 0.00 0.00 0.00 0.00 0.00 0.00 0.00 0.00 0.00 0.00 0.00 0.00 0.00 0.00 0.00 0.00 0.00 0.00 0.00 0.01 0.02 0.02 0.01 0.00 0.00 0.00 0.01 0.01 0.01 0.02
0.00 0.00 0.00 0.00 0.00 0.00 0.00 0.00 0.00 0.00 0.00 0.00 0.00 0.00 0.00 0.00 0.00 0.00 0.00 0.00 0.00 0.00 0.00 0.00 0.00 0.00 0.01 0.01 0.01 0.01 0.00 0.00 0.00 0.00 0.00 0.00 0.00 0.00 0.00 0.01 0.01 0.01 0.00
0.00 0.00 0.00 0.00 0.00 0.00 0.00 0.00 0.00 0.00 0.00 0.00 0.00 0.00 0.00 0.00 0.00 0.00 0.00 0.00 0.00 0.00 0.00 0.00 0.00 0.01 0.01 0.00 0.00 0.00 0.00 0.00 0.00 0.00 0.00 0.00 0.00 0.00 0.00 0.00 0.00 0.00 0.00
0.01 0.00 0.01 0.01 0.02 0.01 0.00 0.00 0.00 0.00 0.00 0.00 0.00 0.00 0.00 0.00 0.00 0.00 0.00 0.00 0.00 0.00 0.00 0.01 0.01 0.00 0.00 0.00 0.00 0.00 0.00 0.00 0.00 0.00 0.00 0.00 0.00 0.00 0.00 0.00 0.00 0.00 0.00
0.00 0.00 0.00 0.00 0.00 0.01 0.00 0.00 0.00 0.00 0.00 0.00 0.00 0.00 0.00 0.00 0.00 0.00 0.00 0.00 0.00 0.00 0.00 0.00 0.00 0.00 0.00 0.00 0.00 0.00 0.00 0.00 0.00 0.00 0.00 0.00 0.00 0.00 0.00 0.00 0.00 0.00 0.00
0.00 0.00 0.00 0.00 0.00 0.00 0.00 0.00 0.00 0.00 0.00 0.00 0.00 0.00 0.00 0.00 0.00 0.00 0.00 0.00 0.00 0.00 0.00 0.00 0.00 0.00 0.00 0.00 0.00 0.00 0.00 0.00 0.00 0.00 0.00 0.00 0.00 0.00 0.00 0.00 0.00 0.00 0.00
0.00 0.00 0.00 0.00 0.00 0.00 0.00 0.00 0.00 0.00 0.00 0.00 0.00 0.00 0.00 0.00 0.00 0.00 0.00 0.00 0.00 0.00 0.00 0.00 0.00 0.00 0.00 0.00 0.00 0.00 0.00 0.00 0.00 0.00 0.00 0.00 0.00 0.00 0.00 0.00 0.00 0.00 0.00
0.00 0.00 0.00 0.00 0.00 0.00 0.00 0.00 0.00 0.00 0.00 0.00 0.00 0.00 0.00 0.00 0.00 0.00 0.00 0.00 0.00 0.00 0.00 0.00 0.00 0.00 0.00 0.00 0.00 0.00 0.00 0.00 0.00 0.00 0.00 0.00 0.00 0.00 0.00 0.01 0.00 0.00 0.00
0.00 0.00 0.00 0.00 0.00 0.00 0.00 0.00 0.00 0.00 0.00 0.00 0.00 0.00 0.00 0.00 0.00 0.00 0.00 0.00 0.00 0.00 0.00 0.00 0.00 0.00 0.00 0.00 0.00 0.00 0.00 0.00 0.00 0.00 0.00 0.00 0.00 0.00 0.00 0.01 0.00 0.00 0.00
0.00 0.00 0.00 0.00 0.00 0.00 0.00 0.00 0.00 0.00 0.00 0.00 0.00 0.00 0.00 0.00 0.00 0.00 0.00 0.00 0.00 0.00 0.00 0.00 0.00 0.00 0.00 0.00 0.00 0.00 0.00 0.00 0.00 0.00 0.00 0.00 0.00 0.00 0.00 0.00 0.00 0.00 0.00
0.00 0.00 0.00 0.00 0.00 0.00 0.00 0.00 0.00 0.00 0.00 0.00 0.00 0.00 0.00 0.00 0.00 0.00 0.00 0.00 0.00 0.00 0.00 0.00 0.00 0.00 0.00 0.00 0.00 0.00 0.00 0.00 0.00 0.00 0.00 0.00 0.00 0.00 0.00 0.00 0.00 0.00 0.00
0.00 0.00 0.00 0.00 0.00 0.00 0.00 0.00 0.00 0.00 0.00 0.00 0.00 0.00 0.00 0.00 0.00 0.00 0.00 0.00 0.00 0.00 0.00 0.00 0.00 0.00 0.00 0.00 0.00 0.00 0.00 0.00 0.00 0.00 0.00 0.00 0.00 0.01 0.00 0.00 0.00 0.00 0.00
0.00 0.00 0.00 0.00 0.00 0.00 0.00 0.00 0.00 0.00 0.00 0.00 0.00 0.00 0.00 0.00 0.00 0.00 0.00 0.00 0.00 0.00 0.00 0.00 0.00 0.00 0.00 0.00 0.00 0.00 0.00 0.00 0.00 0.00 0.00 0.00 0.00 0.00 0.01 0.01 0.01 0.01 0.00
MSLP
1011.20 1011.99 1012.66 1013.29 1014.06 1014.76 1015.13 1015.53 1015.89 1016.34 1016.87 1017.23 1017.47 1017.72 1018.02 1018.30 1018.58 1019.02 1019.26 1019.52 1019.85 1020.04 1020.33 1020.60 1020.68 1020.84 1020.87 1020.99 1021.26 1021.30 1021.32 1021.37 1020.78 1020.08 1020.41 1020.24 1020.25 1019.86 1019.52 1019.66 1019.72 1019.63 1019.45
1009.84 1010.88 1011.70 1012.42 1013.12 1013.78 1014.27 1014.68 1015.22 1015.57 1016.14 1016.62 1016.98 1017.25 1017.56 1017.83 1018.13 1018.53 1018.73 1018.88 1019.23 1019.34 1019.54 1019.90 1020.00 1020.25 1020.63 1020.66 1020.65 1020.81 1020.76 1020.80 1020.76 1019.97 1019.81 1019.77 1019.65 1019.22 1019.06 1019.02 1018.75 1018.34 1018.41
1008.68 1009.68 1010.53 1011.33 1012.12 1012.69 1013.29 1013.84 1014.44 1014.90 1015.32 1015.86 1016.32 1016.64 1016.94 1017.26 1017.63 1018.02 1018.23 1018.40 1018.56 1018.65 1018.80 1019.05 1019.18 1019.54 1019.80 1019.75 1019.94 1019.86 1019.98 1020.33 1020.33 1019.97 1019.18 1019.06 1018.95 1018.84 1018.44 1018.34 1018.16 1017.91 1017.78
1007.46 1008.46 1009.30 1010.02 1010.70 1011.49 1012.31 1013.00 1013.56 1014.07 1014.55 1015.02 1015.41 1015.83 1016.26 1016.63 1016.97 1017.35 1017.61 1017.79 1017.86 1017.88 1018.09 1018.28 1018.51 1018.73 1018.94 1019.09 1019.20 1019.32 1019.38 1019.34 1019.22 1019.24 1018.68 1018.15 1017.92 1017.93 1018.09 1017.72 1017.10 1016.77 1016.57
1006.45 1007.27 1007.95 1008.83 1009.70 1010.58 1011.45 1012.10 1012.63 1013.21 1013.65 1014.09 1014.66 1015.12 1015.54 1015.99 1016.14 1016.51 1016.83 1017.00 1017.16 1017.23 1017.34 1017.48 1017.68 1017.86 1018.05 1018.29 1018.36 1018.31 1018.51 1018.60 1018.40 1018.07 1017.72 1017.32 1016.91 1016.95 1016.86 1016.64 1016.25 1015.84 1015.72
1005.41 1006.15 1006.98 1007.97 1008.84 1009.62 1010.44 1011.19 1011.86 1012.36 1012.88 1013.43 1013.87 1014.27 1014.68 1014.99 1015.17 1015.60 1016.00 1016.19 1016.36 1016.46 1016.53 1016.67 1016.91 1017.17 1017.31 1017.45 1017.62 1017.70 1017.80 1017.80 1017.78 1017.38 1016.73 1016.24 1016.07 1016.33 1016.08 1015.98 1015.66 1015.18 1014.30
1004.48 1005.37 1006.15 1007.10 1007.95 1008.71 1009.48 1010.24 1010.81 1011.37 1012.09 1012.60 1013.10 1013.49 1013.74 1014.04 1014.34 1014.77 1015.16 1015.44 1015.41 1015.50 1015.69 1015.87 1016.01 1016.01 1016.31 1016.50 1016.63 1016.86 1017.03 1017.07 1017.01 1016.69 1015.99 1015.68 1015.24 1015.51 1015.54 1015.31 1015.10 1014.71 1014.05
1003.70 1004.55 1005.45 1006.30 1007.13 1007.90 1008.64 1009.28 1009.92 1010.62 1011.06 1011.62 1012.16 1012.52 1012.91 1013.05 1013.49 1013.94 1014.34 1014.84 1014.74 1014.62 1014.70 1014.86 1015.08 1015.19 1015.38 1015.60 1015.78 1015.76 1015.58 1015.53 1015.68 1015.75 1015.27 1014.67 1014.84 1014.74 1014.76 1014.42 1014.22 1013.98 1013.61
1002.87 1003.63 1004.50 1005.41 1006.24 1007.04 1007.64 1008.25 1008.88 1009.64 1010.24 1010.60 1011.10 1011.59 1011.87 1012.02 1012.48 1013.08 1013.82 1014.03 1013.80 1013.62 1013.70 1013.85 1014.09 1014.29 1014.60 1014.96 1015.18 1014.78 1014.36 1014.18 1014.08 1014.36 1014.26 1014.26 1014.38 1014.46 1014.51 1014.40 1014.10 1013.95 1013.04
1001.52 1002.44 1003.70 1004.68 1005.34 1005.97 1006.67 1007.30 1007.91 1008.59 1009.04 1009.66 1010.00 1010.40 1010.73 1010.93 1011.44 1011.95 1012.77 1012.94 1012.59 1012.52 1012.67 1012.77 1013.10 1013.41 1013.81 1014.14 1014.29 1014.11 1013.39 1013.25 1013.34 1013.12 1013.23 1013.54 1013.74 1013.48 1013.74 1013.92 1013.60 1013.48 1013.05
1001.42 1002.40 1003.22 1003.90 1004.59 1005.14 1005.82 1006.48 1007.17 1007.82 1008.25 1008.77 1009.04 1009.29 1009.68 1010.12 1010.44 1010.91 1011.57 1011.90 1011.50 1011.43 1011.39 1011.42 1011.72 1012.16 1012.75 1013.12 1013.28 1013.18 1012.76 1012.80 1012.63 1012.54 1012.44 1012.37 1012.26 1012.18 1012.08 1011.79 1012.50 1012.56 1012.14
1000.97 1001.81 1002.56 1003.24 1003.90 1004.45 1005.15 1005.88 1006.50 1007.02 1007.48 1007.77 1008.14 1008.35 1008.50 1008.98 1009.47 1009.84 1010.32 1010.79 1010.62 1010.70 1010.52 1010.48 1010.80 1011.32 1011.74 1012.07 1012.47 1012.61 1012.46 1012.48 1012.56 1012.18 1011.90 1011.86 1011.72 1011.50 1011.23 1011.16 1010.90 1011.12 1011.03
1000.52 1001.06 1001.74 1002.54 1003.21 1003.72 1004.47 1005.15 1005.79 1006.26 1006.41 1006.78 1006.94 1007.08 1007.22 1007.52 1008.13 1008.78 1009.25 1009.70 1009.98 1010.29 1009.96 1009.86 1010.22 1010.60 1010.97 1011.41 1011.49 1011.57 1011.86 1012.33 1012.20 1011.92 1011.54 1011.23 1011.02 1010.72 1010.89 1010.83 1010.53 1010.28 1009.94
1000.37 1000.92 1001.57 1002.11 1002.66 1003.28 1003.97 1004.47 1004.77 1005.02 1005.54 1005.77 1005.83 1005.96 1006.12 1006.42 1006.82 1007.29 1008.20 1009.10 1009.58 1009.92 1009.93 1009.75 1009.95 1010.32 1010.56 1010.54 1010.73 1010.83 1011.01 1011.00 1011.12 1010.98 1010.78 1010.65 1010.57 1010.61 1010.53 1010.48 1010.32 1009.85 1009.26
1000.77 1001.22 1001.71 1001.98 1002.38 1002.78 1003.34 1003.87 1003.96 1003.98 1004.30 1004.93 1005.32 1005.45 1005.29 1005.50 1005.82 1006.33 1006.76 1007.22 1007.79 1008.10 1008.77 1008.99 1009.29 1009.58 1009.62 1009.64 1009.64 1009.76 1009.90 1010.14 1010.33 1010.38 1010.29 1010.22 1010.20 1010.17 1010.13 1010.09 1009.87 1009.39 1008.92
1001.26 1001.36 1001.91 1002.08 1002.91 1002.30 1002.76 1004.17 1004.66 1005.03 1004.53 1005.11 1005.44 1005.60 1004.83 1005.43 1005.96 1006.28 1006.51 1006.85 1007.20 1007.82 1008.54 1008.45 1008.51 1008.68 1008.73 1008.77 1008.92 1008.95 1009.04 1009.22 1009.37 1009.47 1009.60 1009.69 1009.79 1009.88 1009.82 1009.70 1009.42 1009.27 1009.27
1002.13 1002.76 1002.09 1001.63 1004.01 1003.44 1002.54 1003.27 1003.68 1004.90 1005.04 1005.34 1005.62 1005.88 1005.92 1005.88 1006.30 1006.51 1006.66 1006.91 1007.58 1008.12 1008.05 1008.00 1008.03 1008.12 1008.20 1008.32 1008.37 1008.42 1008.53 1008.58 1008.87 1009.05 1009.16 1009.26 1009.41 1009.56 1009.59 1009.27 1009.21 1009.33 1008.86
1002.86 1000.40 1002.62 1001.49 1004.48 1004.45 1003.00 1002.77 1003.04 1003.50 1004.16 1004.70 1005.70 1005.87 1005.83 1005.94 1006.42 1006.52 1006.70 1006.94 1007.80 1008.04 1007.68 1007.48 1007.61 1007.82 1007.96 1008.00 1008.03 1008.21 1008.22 1008.24 1008.33 1008.57 1008.79 1009.02 1009.10 1009.15 1009.20 1009.08 1009.14 1009.10 1009.14
1003.60 1004.72 1005.74 1004.53 1004.49 1002.72 1002.20 1002.32 1002.35 1002.72 1003.26 1003.82 1005.13 1005.83 1006.14 1006.28 1006.37 1006.56 1006.63 1006.62 1006.85 1007.23 1007.42 1007.56 1007.74 1007.88 1007.97 1007.98 1007.83 1007.92 1008.16 1008.41 1008.64 1008.67 1008.73 1008.79 1008.82 1009.12 1008.93 1008.82 1008.82 1009.54 1009.53
1005.59 1005.39 1004.70 1003.42 1002.54 1002.24 1002.36 1002.54 1002.56 1002.68 1002.91 1003.51 1004.18 1004.84 1005.90 1006.34 1006.40 1006.39 1006.46 1006.68 1006.82 1006.96 1007.10 1007.32 1007.62 1007.79 1007.80 1007.73 1007.84 1007.96 1008.15 1008.38 1008.47 1008.60 1008.69 1008.80 1008.90 1008.70 1008.47 1008.45 1008.38 1008.56 1008.75
1004.41 1003.66 1003.09 1002.10 1001.99 1002.16 1002.21 1002.45 1002.68 1002.70 1002.88 1003.44 1004.20 1005.32 1005.65 1005.95 1006.14 1006.46 1006.52 1006.51 1006.61 1006.78 1006.98 1007.15 1007.24 1007.30 1007.49 1007.87 1008.08 1008.03 1008.00 1007.92 1007.94 1008.10 1008.38 1008.48 1008.19 1008.10 1008.13 1008.27 1008.30 1008.21 1008.21
1004.54 1004.03 1003.27 1002.81 1002.51 1002.59 1002.29 1002.37 1002.74 1002.91 1003.03 1003.49 1004.82 1006.00 1006.32 1006.20 1006.12 1006.63 1007.10 1007.25 1007.48 1007.60 1007.48 1007.12 1007.40 1007.86 1008.14 1008.21 1008.19 1008.10 1007.98 1007.86 1007.90 1008.02 1008.04 1007.88 1007.77 1007.81 1007.85 1007.80 1007.79 1007.98 1008.04
1004.86 1004.60 1003.95 1003.62 1002.98 1002.96 1003.03 1002.77 1002.87 1003.10 1003.19 1003.52 1004.36 1005.58 1006.50 1006.96 1007.00 1007.32 1007.69 1007.93 1008.13 1008.21 1008.35 1008.34 1008.43 1008.56 1008.79 1009.01 1009.06 1008.89 1008.60 1008.28 1008.19 1008.15 1007.92 1007.70 1007.50 1007.35 1007.18 1007.12 1007.21 1007.35 1007.43
1005.68 1005.28 1004.67 1004.00 1003.50 1003.32 1003.15 1003.29 1003.65 1004.19 1004.15 1004.21 1004.54 1004.98 1006.02 1007.03 1007.64 1007.93 1008.12 1008.60 1009.02 1009.34 1009.54 1009.53 1009.48 1009.39 1009.21 1009.02 1008.79 1008.73 1008.70 1008.51 1008.28 1007.84 1007.64 1007.46 1007.30 1007.33 1007.13 1007.00 1006.97 1007.09 1007.25
1006.66 1006.30 1006.05 1005.66 1004.99 1004.68 1004.74 1004.76 1005.08 1005.34 1005.73 1006.15 1006.35 1006.47 1006.96 1007.49 1008.03 1008.57 1009.09 1009.58 1009.81 1010.01 1010.11 1010.28 1010.37 1010.04 1009.71 1009.35 1009.15 1009.07 1009.39 1009.21 1008.74 1008.37 1007.64 1007.06 1006.66 1006.64 1006.86 1006.68 1006.62 1007.02 1007.10
1007.68 1007.33 1007.63 1007.71 1007.54 1007.28 1007.08 1007.34 1007.40 1007.23 1007.35 1007.75 1008.04 1007.93 1008.20 1008.84 1009.17 1009.51 1009.84 1010.28 1010.68 1010.64 1010.38 1010.43 1010.33 1010.04 1009.99 1010.13 1010.28 1010.18 1009.66 1009.17 1008.36 1007.84 1007.25 1006.65 1006.32 1006.25 1006.21 1006.21 1006.21 1006.55 1006.74
Thickness
5801 5799 5799 5800 5798 5796 5797 5798 5799 5797 5793 5791 5791 5790 5788 5787 5786 5784 5783 5783 5780 5779 5778 5776 5775 5775 5776 5776 5775 5774 5773 5771 5769 5780 5780 5781 5781 5784 5784 5782 5780 5778 5777
5808 5804 5802 5802 5801 5800 5800 5801 5801 5801 5798 5795 5794 5792 5790 5789 5788 5786 5785 5786 5783 5782 5781 5779 5779 5779 5777 5778 5779 5776 5777 5777 5775 5775 5782 5783 5784 5788 5787 5786 5786 5787 5783
5813 5810 5807 5806 5805 5805 5805 5805 5804 5803 5802 5799 5797 5793 5791 5790 5789 5789 5788 5788 5788 5787 5786 5784 5783 5783 5781 5784 5783 5784 5784 5782 5780 5779 5783 5789 5789 5789 5791 5790 5788 5786 5784
5820 5816 5814 5814 5815 5813 5809 5808 5807 5806 5804 5803 5801 5797 5795 5793 5791 5791 5790 5790 5790 5791 5791 5789 5789 5788 5787 5787 5788 5787 5788 5787 5788 5784 5787 5791 5793 5793 5790 5788 5791 5795 5791
5823 5822 5821 5820 5819 5815 5812 5811 5811 5810 5808 5806 5802 5800 5798 5795 5795 5794 5793 5793 5792 5792 5794 5795 5794 5795 5795 5795 5795 5795 5794 5791 5793 5794 5794 5797 5797 5795 5792 5794 5793 5796 5795
5828 5827 5825 5821 5820 5819 5816 5814 5813 5811 5809 5807 5804 5803 5801 5801 5802 5799 5798 5797 5796 5795 5796 5799 5800 5799 5800 5800 5799 5800 5801 5798 5795 5798 5801 5801 5802 5798 5800 5795 5794 5792 5793
5832 5829 5828 5825 5822 5820 5819 5817 5817 5815 5811 5808 5806 5806 5805 5806 5805 5803 5801 5802 5802 5803 5803 5804 5805 5810 5808 5809 5807 5804 5802 5801 5800 5803 5806 5805 5806 5802 5800 5796 5794 5793 5793
5832 5830 5829 5827 5824 5823 5822 5821 5819 5817 5815 5811 5809 5810 5809 5812 5810 5808 5806 5806 5807 5810 5811 5812 5812 5813 5815 5814 5812 5811 5812 5812 5808 5806 5810 5814 5810 5809 5804 5802 5800 5797 5799
5833 5834 5833 5830 5827 5825 5825 5824 5823 5820 5817 5816 5815 5814 5814 5817 5815 5813 5809 5811 5813 5815 5818 5819 5819 5818 5817 5813 5813 5814 5817 5817 5815 5815 5815 5812 5809 5806 5801 5797 5791 5784 5786
5842 5840 5835 5831 5829 5829 5826 5824 5824 5823 5821 5821 5821 5822 5821 5823 5822 5819 5815 5818 5819 5821 5823 5824 5822 5823 5819 5815 5815 5814 5818 5818 5817 5819 5820 5814 5808 5805 5801 5792 5791 5780 5778
5839 5836 5834 5832 5830 5829 5827 5827 5826 5824 5824 5824 5825 5827 5827 5827 5828 5823 5820 5823 5826 5827 5828 5830 5832 5827 5822 5819 5816 5820 5821 5821 5819 5818 5817 5817 5814 5811 5808 5804 5794 5786 5781
5838 5835 5832 5831 5831 5831 5830 5828 5828 5827 5826 5827 5827 5829 5833 5833 5830 5827 5824 5823 5830 5830 5831 5835 5836 5830 5825 5822 5818 5818 5817 5814 5814 5814 5814 5811 5809 5809 5809 5807 5802 5796 5793
5834 5834 5833 5832 5832 5834 5831 5829 5828 5829 5832 5830 5832 5833 5835 5838 5837 5830 5828 5827 5826 5828 5834 5836 5833 5828 5824 5820 5818 5817 5812 5809 5807 5806 5807 5809 5809 5811 5805 5802 5799 5795 5791
5830 5829 5829 5829 5830 5832 5831 5832 5832 5832 5830 5833 5834 5834 5836 5837 5838 5839 5834 5828 5824 5823 5825 5828 5827 5823 5821 5821 5819 5816 5814 5812 5808 5807 5807 5806 5805 5802 5799 5796 5791 5790 5788
5820 5820 5820 5824 5826 5828 5830 5833 5835 5838 5837 5835 5835 5834 5835 5835 5838 5838 5837 5835 5832 5830 5825 5825 5820 5817 5817 5818 5818 5816 5814 5809 5804 5803 5801 5799 5798 5796 5792 5790 5786 5784 5779
5807 5811 5810 5812 5810 5823 5824 5818 5812 5813 5805 5819 5822 5826 5836 5831 5829 5826 5827 5826 5825 5821 5818 5818 5816 5814 5813 5813 5812 5811 5810 5806 5804 5802 5799 5796 5792 5788 5785 5782 5781 5775 5767
5789 5789 5799 5805 5786 5792 5812 5813 5816 5809 5805 5806 5807 5809 5814 5819 5818 5816 5816 5815 5811 5808 5812 5812 5810 5810 5809 5808 5807 5806 5804 5803 5800 5795 5793 5790 5786 5781 5777 5776 5773 5765 5764
5773 5784 5770 5788 5770 5770 5801 5807 5810 5812 5810 5809 5797 5800 5805 5806 5804 5805 5804 5806 5804 5799 5805 5805 5803 5803 5801 5800 5800 5797 5797 5796 5793 5790 5787 5782 5779 5775 5770 5767 5763 5757 5752
5757 5750 5748 5765 5768 5790 5800 5802 5806 5806 5806 5806 5799 5793 5791 5790 5790 5790 5792 5800 5799 5796 5794 5792 5791 5790 5789 5789 5791 5789 5786 5784 5779 5777 5775 5773 5770 5763 5761 5759 5755 5741 5736
5736 5740 5750 5768 5780 5785 5787 5786 5789 5792 5794 5795 5794 5794 5784 5784 5788 5788 5789 5787 5786 5784 5783 5782 5781 5780 5780 5781 5779 5778 5774 5771 5769 5766 5763 5760 5756 5755 5754 5750 5747 5740 5734
5741 5751 5755 5769 5772 5774 5776 5775 5776 5780 5782 5783 5783 5779 5773 5778 5777 5775 5776 5776 5774 5774 5773 5773 5773 5773 5772 5769 5767 5766 5764 5763 5761 5758 5754 5750 5750 5747 5745 5740 5735 5732 5728
5727 5735 5745 5751 5757 5759 5765 5768 5766 5768 5772 5772 5764 5758 5754 5764 5766 5761 5757 5757 5756 5756 5758 5762 5760 5756 5754 5753 5753 5752 5751 5750 5748 5745 5743 5742 5740 5737 5733 5729 5725 5720 5716
5710 5717 5727 5733 5742 5743 5747 5754 5756 5757 5759 5761 5757 5750 5745 5741 5743 5740 5737 5737 5737 5737 5737 5737 5737 5736 5732 5731 5730 5730 5732 5732 5730 5729 5728 5728 5727 5725 5724 5720 5716 5711 5706
5687 5696 5707 5717 5726 5731 5735 5737 5738 5735 5739 5742 5743 5742 5736 5728 5722 5720 5721 5718 5714 5712 5710 5710 5711 5712 5713 5715 5716 5715 5714 5714 5714 5715 5714 5713 5711 5708 5707 5705 5703 5699 5694
5662 5670 5676 5685 5697 5705 5708 5711 5711 5713 5711 5710 5711 5712 5710 5706 5702 5700 5697 5693 5691 5690 5689 5688 5687 5690 5693 5696 5696 5696 5694 5694 5693 5694 5695 5698 5699 5696 5691 5690 5689 5682 5680
5634 5641 5643 5646 5652 5659 5665 5666 5670 5677 5681 5679 5680 5683 5681 5678 5677 5675 5674 5671 5667 5668 5671 5670 5670 5672 5672 5671 5669 5670 5673 5674 5677 5680 5679 5683 5684 5682 5679 5676 5675 5670 5664